Location: Mount Cross
(36.6390°N, 79.4878°W)
Time: 00:35:00
(UTC+00:00)

SR - Pass Details

Date: 01 April 2023
Orbit: 580 x 867 km, 66.7° (Epoch: 08 June)

Event Time Altitude Azimuth Distance (km) Brightness Sun altitude
Rises 15:52:12 0° 316° (NW) 2,851 ? 51.9°
Reaches altitude 10° 15:54:46 10° 302° (WNW) 1,976 ? 52.3°
Maximum altitude 15:58:13 22° 250° (WSW) 1,376 ? 52.7°
Drops below altitude 10° 16:01:50 10° 199° (SSW) 2,080 ? 53.1°
Sets 16:04:37 0° 185° (S) 3,045 ? 53.4°
